World > North America > United States > Texas > Yantis   City of Yantis, Texas

Yantis, TX Hourly Weather Updates

Feedback E-mail the Weather

Quick Clicks

Yantis, TX Weather Maps

°F °C°F °C
Yantis Weather Map
UTC Time: 7/20/2024, 16:17
Your Time:

Yantis, TX Regional Weather

Expires:202407201700;;994495
ASUS44 KFWD 201615
RWRTX 
NORTH TEXAS HOURLY WEATHER ROUNDUP
NATIONAL WEATHER SERVICE FORT WORTH TX
1100 AM CDT SAT JUL 20 2024

NOTE: "FAIR" INDICATES FEW OR NO CLOUDS BELOW 12,000 FEET WITH NO
SIGNIFICANT WEATHER AND/OR OBSTRUCTIONS TO VISIBILITY.


TXZ095>097-106>112-122>126-135>138-148>153-164>167-201700-
EAST TEXAS
  
CITY           SKY/WX    TMP DP  RH WIND       PRES   REMARKS
PARIS          FAIR     N/A N/A N/A CALM      30.12R                  
SULPHUR SPRNGS FAIR      81  69  66 CALM      30.12S                  
GILMER         FAIR      82  66  57 N5        30.10S                  
MINEOLA        FAIR      81  70  69 CALM      30.10S                  
TYLER          FAIR      83  66  56 CALM      30.08S                  
LONGVIEW       FAIR      82  70  66 CALM      30.07S                  
MARSHALL       FAIR      82  73  72 N5        30.06F                  
ATHENS         FAIR      82  63  51 CALM      30.07S                  
PALESTINE      FAIR      84  68  58 CALM      30.05S                  
JACKSONVILLE   FAIR      82  66  57 CALM      30.10S                  
HENDERSON      FAIR      89  70  53 CALM      30.09S HX  94           
CENTER         FAIR      79  64  61 CALM      30.07F                  
NACOGDOCHES    FAIR      83  69  62 CALM      30.07F                  
LUFKIN         PTSUNNY   83  72  69 SW3       30.06S                  
$$

SUPPLEMENTAL OBSERVATIONS (NWS FORT WORTH AREA)
  
CITY           SKY/WX    TMP DP  RH WIND       PRES   REMARKS
CADDO GRASSLND   N/A     84  66  54 SW5         N/A                   
LBJ GRASSLAND    N/A     81  66  61 S2          N/A                   
POSSUM KINGDOM   N/A     88  70  55 SE8         N/A  HX  92           
GRANBURY         N/A     86  66  51 S6          N/A                   
COMANCHE         N/A     88  68  51 SW7         N/A  HX  91           
MCGREGOR         N/A     86  68  54 SE7         N/A                   
TEMPLE           N/A     86  70  58 SW5         N/A  HX  90           
LAKE LIMESTONE   N/A     88  66  48 NE3         N/A  HX  90           
PALESTINE        N/A     84  66  54 NW3         N/A                   
$$

SUPPLEMENTAL OBSERVATIONS (NWS NORMAN AREA)
  
CITY           SKY/WX    TMP DP  RH WIND       PRES   REMARKS
GOODLETT         N/A     85  63  46 SE5       30.07                   
ODELL            N/A     84  67  55 SE7       30.08S                  
CROWELL          N/A     84  64  50 S6        30.09R                  
KNOX CITY        N/A     86  65  48 SW10      30.07                   
SEYMOUR          N/A     85  68  56 SE5       30.07S                  
MILLERS CREEK    N/A     84  66  54 S6          N/A                   
$$

SUPPLEMENTAL OBSERVATIONS (NWS SAN ANGELO AREA)
  
CITY           SKY/WX    TMP DP  RH WIND       PRES   REMARKS
WEINERT          N/A     86  65  50 SW12      30.08S                  
HASKELL          N/A     87  67  51 SW7       30.07  HX  90           
THROCKMORTON     N/A     87  71  57 S5        30.08  HX  93           
STAMFORD         N/A     90  68  47 SW12      30.09  HX  93           
CLYDE            N/A     84  68  59 S10       30.13S                  
HAMBY            N/A     90  66  45 SW12        N/A  HX  92           
IVIE RESERVOIR   N/A     90  66  45 SE3         N/A  HX  92           
COLORADO BEND    N/A     90  68  48 S7          N/A  HX  93           
$$

SUPPLEMENTAL OBSERVATIONS (NWS SHREVEPORT AREA)
  
CITY           SKY/WX    TMP DP  RH WIND       PRES   REMARKS
TEXARKANA        N/A     84  66  54 N1          N/A                   
CADDO LAKE       N/A     84  75  74 S1          N/A  HX  92           
LUFKIN           N/A     86  72  62 MISG        N/A  HX  92           
N SABINE NF      N/A     84  70  61 MISG        N/A                   
$$

SUPPLEMENTAL OBSERVATIONS ARE A COLLECTION OF AUTOMATED INSTRUMENTS
THAT ARE MAINTAINED BY A VARIETY OF FEDERAL AND STATE AGENCIES. 
CERTAIN ELEMENTS...SUCH AS HUMIDITY VALUES AND SUSTAINED WIND 
SPEEDS...MAY BE APPROXIMATED.

  

SKY/WX - Weather  TMP - Temperature  DP - Dew Point  RH - Humidity
WIND - Wind Direction/Speed PRES - Barometric Pressure VSB - Visibility
WCI - Wind Chill Index E13G22 Wind - East Wind 13 mph/Gusts of 22 mph

Trending Headlines

Trending Entertainment Headlines

Yantis Radar Loop

Use the map search tool if you want to place a location marker on the radar map...

Yantis Quick Facts

National Two Day Weather Forecast


E-mail the Yantis Weather Forecast

Voice your opinion or tell us about page issues...